Flag for Norway Weather past 2 weeks in Horten, Norway

Now
48 °F

Passing clouds.


Feels Like: 43 °F
Forecast: 43 / 60 °F
Wind: 14 mph from Northwest

Location: Oseberg

Current Time: May 31, 2015 at 1:47:59 AM

Latest Report: May 31, 2015 at 12:50 AM


Visibility: N/A

Pressure: 29.65 "Hg

Humidity: 71%

Dew point: 39 °F

Location of HortenLocation

Historic Weather in Horten — Graph

°F

Horten temperature yesterday

Maximum temperature yesterday: 52 °F (at 12:50 PM)
Minimum temperature yesterday: 45 °F (at 12:50 AM)
Average temperature yesterday: 48 °F

Past Weeks' High & Low Weather Summary

 TemperatureHumidityPressure
High52 °F (May 25, 3:20 PM)100% (May 16, 2:50 AM)30.15 "Hg (May 16, 2:50 AM)
Low43 °F (May 16, 2:50 AM)58% (May 19, 6:50 AM)29.27 "Hg (May 19, 5:50 AM)
Average46 °F82%29.72 "Hg
* Reported May 16 12:50 AM — May 31 12:50 AM, Horten, Weather by CustomWeather, © 2015

Note: Actual official high and low records may vary slightly from our data, if they occured in-between our weather recording intervals... More about our weather records

Advertising

Horten weather history for previous 24 hours

 ConditionsComfort  
Time TempWeatherWind HumidityBarometerVisibility
12:50 AM
Sun, May 31
48 °FPassing clouds.14 mph71%29.65 "HgN/A
11:50 PM
Sat, May 30
48 °FPassing clouds.14 mph71%29.65 "HgN/A
10:50 PM48 °FPassing clouds.14 mph76%29.65 "HgN/A
9:50 PM48 °FPassing clouds.14 mph76%29.65 "HgN/A
8:50 PM48 °FPassing clouds.14 mph76%29.65 "HgN/A
7:50 PM48 °FPassing clouds.14 mph71%29.65 "HgN/A
6:50 PM50 °FPassing clouds.14 mph71%29.65 "HgN/A
6:20 PM50 °FPassing clouds.13 mph71%29.65 "HgN/A
5:50 PM50 °FPassing clouds.12 mph71%29.65 "HgN/A
4:50 PM50 °FPassing clouds.12 mph71%29.62 "HgN/A
3:50 PM52 °FPassing clouds.9 mph72%29.62 "HgN/A
2:50 PM52 °FPassing clouds.8 mph67%29.62 "HgN/A
2:20 PM46 °FSunny.8 mph87%29.65 "Hg10 mi
1:50 PM50 °FSunny.8 mph67%29.59 "Hg10 mi
12:50 PM52 °FPassing clouds.5 mph62%29.59 "HgN/A
11:50 AM50 °FSunny.2 mph67%29.59 "Hg10 mi
10:50 AM50 °FSunny.2 mph62%29.56 "Hg10 mi
9:50 AM50 °FSunny.3 mph67%29.56 "Hg10 mi
8:50 AM48 °FSunny.5 mph66%29.56 "Hg10 mi
7:50 AM48 °FSunny.5 mph66%29.53 "Hg10 mi
6:50 AM48 °FPassing clouds.7 mph66%29.53 "HgN/A
5:50 AM46 °FPassing clouds.8 mph71%29.53 "HgN/A
4:50 AM45 °FPassing clouds.7 mph71%29.53 "HgN/A
3:50 AM46 °FPassing clouds.7 mph71%29.53 "HgN/A
2:50 AM46 °FPassing clouds.6 mph76%29.53 "HgN/A
1:50 AM45 °FPassing clouds.7 mph76%29.53 "HgN/A
Weather by CustomWeather, © 2015

See weather overviewHow to use our weather pages